TimeCST,TemperatureF,Dew PointF,Humidity,Sea Level PressureIn,VisibilityMPH,Wind Direction,Wind SpeedMPH,Gust SpeedMPH,PrecipitationIn,Events,Conditions,WindDirDegrees,DateUTC
12:47 AM,28.4,26.6,93,29.72,1.0,NNE,11.5,-,0.02,Snow,Light Snow,30,2013-12-22 06:47:00
12:52 AM,28.9,27.0,92,29.75,1.0,NNE,12.7,-,0.02,Snow,Light Snow,20,2013-12-22 06:52:00
1:08 AM,28.4,26.6,93,29.73,1.2,NNE,9.2,-,0.00,Snow,Light Snow,20,2013-12-22 07:08:00
1:16 AM,28.4,26.6,93,29.72,1.5,NNE,12.7,-,0.00,Snow,Light Snow,20,2013-12-22 07:16:00
1:28 AM,28.4,26.6,93,29.72,2.0,North,9.2,-,0.00,Snow,Light Snow,10,2013-12-22 07:28:00
1:39 AM,28.4,26.6,93,29.72,1.5,NNE,10.4,-,0.01,Snow,Light Snow,20,2013-12-22 07:39:00
1:52 AM,28.9,27.0,92,29.74,1.0,NNE,12.7,-,0.01,Snow,Light Snow,30,2013-12-22 07:52:00
2:01 AM,28.4,26.6,93,29.71,0.8,NNE,11.5,-,0.00,Snow,Light Snow,20,2013-12-22 08:01:00
2:14 AM,28.4,26.6,93,29.72,1.0,North,10.4,-,0.01,Snow,Light Snow,10,2013-12-22 08:14:00
2:23 AM,28.4,26.6,93,29.72,1.0,North,8.1,-,0.01,Snow,Light Snow,360,2013-12-22 08:23:00
2:32 AM,28.4,26.6,93,29.73,1.0,North,9.2,-,0.01,Snow,Light Snow,350,2013-12-22 08:32:00
2:52 AM,28.0,26.1,92,29.76,1.0,North,10.4,-,0.02,Snow,Light Snow,360,2013-12-22 08:52:00
2:58 AM,28.4,26.6,93,29.73,1.2,North,10.4,-,0.00,Snow,Light Snow,360,2013-12-22 08:58:00
3:11 AM,28.4,26.6,93,29.73,0.8,North,11.5,-,0.01,Snow,Light Snow,360,2013-12-22 09:11:00
3:23 AM,28.4,26.6,93,29.73,0.5,North,12.7,-,0.01,Fog-Snow,Snow,350,2013-12-22 09:23:00
3:52 AM,27.0,26.1,96,29.76,0.8,North,11.5,-,0.03,Snow,Light Snow,350,2013-12-22 09:52:00
4:22 AM,26.6,24.8,93,29.75,0.5,North,10.4,-,0.02,Fog-Snow,Snow,350,2013-12-22 10:22:00
4:52 AM,27.0,25.0,92,29.78,0.5,North,11.5,-,0.04,Fog-Snow,Snow,350,2013-12-22 10:52:00
5:10 AM,26.6,24.8,93,29.76,0.5,North,11.5,19.6,0.01,Fog-Snow,Snow,360,2013-12-22 11:10:00
5:24 AM,26.6,24.8,93,29.78,0.8,NNW,10.4,-,0.02,Snow,Light Snow,340,2013-12-22 11:24:00
5:52 AM,26.1,24.1,92,29.83,0.5,NNW,9.2,-,0.04,Fog-Snow,Snow,340,2013-12-22 11:52:00
6:48 AM,26.6,24.8,93,29.83,0.8,NNW,11.5,-,0.03,Snow,Light Snow,340,2013-12-22 12:48:00
6:52 AM,26.1,24.1,92,29.86,1.0,NNW,10.4,-,0.03,Snow,Light Snow,340,2013-12-22 12:52:00
7:11 AM,26.6,23.0,86,29.85,1.2,North,12.7,-,0.00,Snow,Light Snow,350,2013-12-22 13:11:00
7:34 AM,26.6,23.0,86,29.85,2.0,North,11.5,20.7,0.00,Snow,Light Snow,360,2013-12-22 13:34:00
7:42 AM,26.6,23.0,86,29.84,2.0,North,12.7,21.9,0.00,Snow,Light Snow,360,2013-12-22 13:42:00
7:52 AM,26.1,21.9,84,29.88,2.5,North,13.8,-,0.00,Snow,Light Snow,350,2013-12-22 13:52:00
8:04 AM,26.6,21.2,80,29.86,3.0,North,11.5,-,0.00,Snow,Light Snow,350,2013-12-22 14:04:00
8:52 AM,26.1,21.9,84,29.90,9.0,North,13.8,-,0.00,,Mostly Cloudy,350,2013-12-22 14:52:00
9:52 AM,26.1,21.0,81,29.94,10.0,NNW,13.8,-,N/A,,Mostly Cloudy,340,2013-12-22 15:52:00
10:36 AM,26.6,21.2,80,29.93,10.0,NNW,13.8,-,N/A,,Mostly Cloudy,340,2013-12-22 16:36:00
10:52 AM,26.1,21.0,81,29.96,10.0,NW,13.8,-,N/A,,Mostly Cloudy,320,2013-12-22 16:52:00
11:47 AM,26.6,19.4,74,29.95,10.0,NW,13.8,-,N/A,,Scattered Clouds,320,2013-12-22 17:47:00
11:52 AM,25.0,19.9,81,29.98,10.0,NW,17.3,20.7,N/A,,Scattered Clouds,320,2013-12-22 17:52:00
12:52 PM,24.1,19.0,81,29.99,10.0,NW,18.4,-,N/A,,Overcast,310,2013-12-22 18:52:00
1:52 PM,23.0,18.0,81,30.02,10.0,WNW,12.7,21.9,N/A,,Overcast,300,2013-12-22 19:52:00
2:06 PM,23.0,17.6,80,30.00,10.0,NW,12.7,24.2,N/A,,Overcast,310,2013-12-22 20:06:00
2:32 PM,21.2,17.6,86,30.02,10.0,WNW,18.4,-,N/A,,Overcast,300,2013-12-22 20:32:00
2:52 PM,21.9,16.0,78,30.07,10.0,NW,13.8,-,N/A,,Overcast,310,2013-12-22 20:52:00
3:52 PM,19.9,14.0,78,30.11,10.0,NW,13.8,-,N/A,,Overcast,310,2013-12-22 21:52:00
4:52 PM,19.0,12.9,77,30.13,10.0,WNW,13.8,-,N/A,,Overcast,300,2013-12-22 22:52:00
5:52 PM,18.0,12.0,78,30.16,10.0,WNW,13.8,-,N/A,,Overcast,300,2013-12-22 23:52:00
6:52 PM,17.1,10.9,77,30.18,10.0,WNW,16.1,21.9,N/A,,Overcast,300,2013-12-23 00:52:00
7:52 PM,17.1,10.9,77,30.21,10.0,WNW,13.8,-,N/A,,Overcast,300,2013-12-23 01:52:00
8:52 PM,16.0,10.9,81,30.23,10.0,NW,16.1,21.9,N/A,,Overcast,310,2013-12-23 02:52:00
9:52 PM,16.0,10.0,77,30.26,10.0,WNW,10.4,21.9,N/A,,Overcast,300,2013-12-23 03:52:00
10:52 PM,12.9,7.0,77,30.29,10.0,NW,9.2,21.9,N/A,,Overcast,310,2013-12-23 04:52:00
11:52 PM,10.9,5.0,77,30.32,10.0,NW,8.1,-,N/A,,Scattered Clouds,310,2013-12-23 05:52:00